Regional Weather Roundup
Issued by NWS

Home | Current Version | Previous Version | Text Only | Print | Product List | Glossary On
Versions: 1 2 3 4 5 6 7 8 9 10 11 12 13 14 15 16 17 18 19 20 21 22 23 24 25 26 27 28 29 30 31 32 33 34 35 36 37 38 39 40 41 42 43 44 45 46 47 48 49 50
000
ASUS44 KLIX 240013
RWRLA
LOUISIANA WEATHER ROUNDUP
NATIONAL WEATHER SERVICE NEW ORLEANS LA
700 PM CDT WED AUG 23 2017

NOTE: "FAIR" INDICATES FEW OR NO CLOUDS BELOW 12,000 FEET WITH NO
      SIGNIFICANT WEATHER AND/OR OBSTRUCTIONS TO VISIBILITY.
      SKY/WX - SKY CONDITION AND SIGNIFICANT WEATHER.
      TMP - AIR TEMPERATURE.    DP   - DEWPOINT TEMPERATURE.
      RH  - RELATIVE HUMIDITY.  PRES - PRESSURE.
      HX  - HEAT INDEX.         WCI  - WIND CHILL INDEX.

*  THESE STATIONS ARE NOT NWS OR FAA STATIONS AND ARE NOT UNDER
   NWS QUALITY CONTROL.

LAZ040-048-061>063-065-066-069-240100-
SOUTHEAST LOUISIANA

CITY           SKY/WX    TMP DP  RH WIND       PRES   REMARKS
N.O. INTL ARPT CLOUDY    85  75  72 S8        29.88S
6HR MIN TEMP:  85; 6HR MAX TEMP:  93;

N.O. LAKEFRONT CLOUDY    87  75  67 S10       29.88S HX  96
6HR MIN TEMP:  87; 6HR MAX TEMP:  93;

N.O. DOWNTOWN* FAIR      89  76  65 S7        29.90R HX 100
6HR MIN TEMP:  88; 6HR MAX TEMP:  93;

RESERVE*       FAIR      90  73  58 S12G17    29.88S HX  98
6HR MIN TEMP:  90; 6HR MAX TEMP:  94;

SLIDELL        MOCLDY    88  73  61 S8        29.87R HX  95
6HR MIN TEMP:  86; 6HR MAX TEMP:  92;

BATON ROUGE    PTCLDY    88  71  57 CALM      29.87S
6HR MIN TEMP:  88; 6HR MAX TEMP:  93;

BOOTHVILLE     PTCLDY    85  77  77 CALM      29.88S HX  95
6HR MIN TEMP:  85; 6HR MAX TEMP:  90;

BELLE CHASSE   MOCLDY    83  80  91 S5        29.88R HX  95
6HR MIN TEMP:  91; 6HR MAX TEMP:  91;

BOGALUSA*      FAIR      88  77  69 W3        29.89R HX  99
6HR MIN TEMP:  88; 6HR MAX TEMP:  92;

GALLIANO*      MOCLDY    80  75  85 CALM      29.89R
6HR MIN TEMP:  76; 6HR MAX TEMP:  90; 6HR PCP:  0.05;

NEW ROADS*     MOCLDY    87  74  64 S5        29.88S
6HR MIN TEMP:  87; 6HR MAX TEMP:  91;

GONZALES*      FAIR      87  74  64 SW3       29.87S HX  96
6HR MIN TEMP:  87; 6HR MAX TEMP:  91;

HAMMOND*       CLEAR     88  70  55 S5        29.87S
HOUMA*         PTCLDY    79  77  94 S5        29.89S
PORT FOURCHON* CLEAR     86  75  70 SE7       29.87F HX  95

$$

LAZ041-044-053-054-240100-
SOUTHWEST LOUISIANA

CITY           SKY/WX    TMP DP  RH WIND       PRES   REMARKS
LAKE CHARLES   RAIN      76  76 100 NE3       29.90S
6HR MIN TEMP:  74; 6HR MAX TEMP:  92; 6HR PCP:  0.29;

LAFAYETTE      PTCLDY    87  76  69 CALM      29.88S HX  97
6HR MIN TEMP:  87; 6HR MAX TEMP:  93;

PATTERSON      CLOUDY    83  76  79 SE6       29.89S
6HR MIN TEMP:  83; 6HR MAX TEMP:  88; 6HR PCP:  0.01;

SALT POINT       N/A     88  75  65 CALM      29.87S HX  97
6HR MIN TEMP:  87; 6HR MAX TEMP:  89;

NEW IBERIA     PTCLDY    85  73  67 S5        29.90R
6HR MIN TEMP:  85; 6HR MAX TEMP:  93;

CHENAULT AIRPK PTCLDY    77  75  94 E5        29.90F

$$

LAZ027-028-240100-
CENTRAL LOUISIANA

CITY           SKY/WX    TMP DP  RH WIND       PRES   REMARKS
FORT POLK      MOCLDY    80  74  81 E5        29.89F
6HR MIN TEMP:  77; 6HR MAX TEMP:  80; 6HR PCP: TRACE;

ALEXANDRIA INT CLOUDY    77  75  93 VRB7      29.88F FOG
ALEXANDRIA     LGT RAIN  76  76 100 W7        29.90S
6HR MIN TEMP:  76; 6HR MAX TEMP:  94; 6HR PCP:  0.02;


$$

LAZ001-002-240100-
NORTHWEST LOUISIANA

CITY           SKY/WX    TMP DP  RH WIND       PRES   REMARKS
SHREVEPORT     TSTM      79  74  84 S10       29.90R
6HR MIN TEMP:  79; 6HR MAX TEMP:  96; 6HR PCP:  0.05;

BARKSDALE AFB  MOCLDY    79  72  78 S7        29.89S
6HR MIN TEMP:  79; 6HR MAX TEMP:  94; 6HR PCP: TRACE;

DTN SHREVEPORT MOCLDY    83  73  72 S8        29.90R
6HR MIN TEMP:  83; 6HR MAX TEMP:  95;


$$

LAZ014-016-240100-
NORTHEAST LOUISIANA

CITY           SKY/WX    TMP DP  RH WIND       PRES   REMARKS
MONROE         LGT RAIN  76  72  87 VRB3      29.90F
6HR MIN TEMP:  76; 6HR MAX TEMP:  95; 6HR PCP:  0.13;

TALLULAH       CLOUDY    82  75  79 VRB6      29.89S
6HR MIN TEMP:  82; 6HR MAX TEMP:  93;


$$




USA.gov is the U.S. government's official web portal to all federal, state and local government web resources and services.